Location: Aulagny
(45.1643°N, 4.3096°E)
Time: 19:56:53
(UTC+00:00)

Cosmos 2297 - Pass Details

Date: 21 October 2019
Orbit: 834 x 860 km, 71.0° (Epoch: 18 November)

Event Time Altitude Azimuth Distance (km) Brightness Sun altitude
Rises 18:41:00 0° 197° (SSW) 3,393 7.0 -20.6°
Reaches altitude 10° 18:43:26 10° 195° (SSW) 2,466 6.2 -21.0°
Maximum altitude 18:49:04 72° 113° (ESE) 896 3.6 -22.0°
Enters shadow 18:53:27 18° 31° (NNE) 2,002 5.4 -22.8°
